GW4239 Weather Reports


time (UTC)temp
C
wind
direction
speed
KPH
gust
KPH
rain 1hr
cm
rain 24hr
cm
rain mn
cm
humidity
%
barometer
mb
20260510190517 26 286 6.4 9.7 0.00 0.00 0.00 38 1015.2
20260510185517 26 314 6.4 12.9 0.00 0.00 0.00 37 1015.2
20260510184517 27 311 8.0 12.9 0.00 0.00 0.00 37 1015.3
20260510183517 26 251 4.8 11.3 0.00 0.00 0.00 38 1015.2
20260510182516 26 277 3.2 8.0 0.00 0.00 0.00 40 1015.3
20260510181517 26 247 1.6 9.7 0.00 0.00 0.00 40 1015.5
20260510180517 25 243 8.0 11.3 0.00 0.00 0.00 43 1015.5
20260510175537 25 317 11.3 14.5 0.00 0.00 0.00 40 1015.7
20260510174517 25 255 4.8 9.7 0.00 0.00 0.00 42 1015.9
20260510173517 25 274 3.2 6.4 0.00 0.00 0.00 44 1016.0
20260510172516 25 259 3.2 4.8 0.00 0.00 0.00 42 1016.1
20260510171517 25 264 8.0 17.7 0.00 0.00 0.00 43 1016.3
20260510170517 25 253 4.8 9.7 0.00 0.00 0.00 43 1016.2
20260510165537 25 259 9.7 17.7 0.00 0.00 0.00 41 1016.3
20260510164537 25 266 3.2 12.9 0.00 0.00 0.00 41 1016.2
20260510163516 25 333 4.8 14.5 0.00 0.00 0.00 40 1016.4
20260510162537 25 307 8.0 14.5 0.00 0.00 0.00 41 1016.5
20260510161517 24 240 11.3 16.1 0.00 0.00 0.00 45 1016.5
20260510160517 24 283 3.2 6.4 0.00 0.00 0.00 45 1016.5
20260510155537 23 276 4.8 9.7 0.00 0.00 0.00 46 1016.6
20260510154517 23 228 3.2 11.3 0.00 0.00 0.00 47 1016.6
20260510153516 23 264 6.4 8.0 0.00 0.00 0.00 46 1016.6
20260510152517 23 233 6.4 12.9 0.00 0.00 0.00 49 1016.6
20260510151517 23 291 4.8 8.0 0.00 0.00 0.00 51 1016.6
20260510150517 22 295 3.2 4.8 0.00 0.00 0.00 50 1016.5
20260510145516 22 268 3.2 8.0 0.00 0.00 0.00 52 1016.5
20260510144537 22 218 3.2 8.0 0.00 0.00 0.00 55 1016.6
20260510143516 21 298 1.6 3.2 0.00 0.00 0.00 57 1016.6
20260510142517 21 216 3.2 8.0 0.00 0.00 0.00 61 1016.6
20260510141537 20 305 3.2 4.8 0.00 0.00 0.00 64 1016.6
20260510140516 18 317 1.6 3.2 0.00 0.00 0.00 68 1016.7
20260510135517 17 74 1.6 3.2 0.00 0.00 0.00 72 1016.9
20260510134517 16 105 3.2 3.2 0.00 0.00 0.00 78 1016.8
20260510133517 15 150 1.6 3.2 0.00 0.00 0.00 80 1017.0
20260510132517 13 27 3.2 3.2 0.00 0.00 0.00 83 1017.2
20260510131517 13 32 3.2 3.2 0.00 0.00 0.00 88 1017.1
20260510130517 12 142 3.2 4.8 0.00 0.00 0.00 92 1017.1
20260510125517 11 117 1.6 3.2 0.00 0.00 0.00 97 1017.2
20260510124537 10 78 1.6 4.8 0.00 0.00 0.00 97 1017.3
20260510123517 10 83 1.6 3.2 0.00 0.00 0.00 97 1017.2
20260510122517 8 68 1.6 3.2 0.00 0.00 0.00 96 1017.0
20260510121517 8 71 1.6 4.8 0.00 0.00 0.00 96 1016.9
20260510120517 8 338 1.6 3.2 0.00 0.00 0.00 96 1016.9
20260510115516 8 0.0 0.0 0.00 0.00 0.00 96 1016.7
20260510114517 7 0.0 0.0 0.00 0.00 0.00 96 1016.8
20260510113516 7 0.0 0.0 0.00 0.00 0.00 96 1016.8
20260510112517 7 0.0 0.0 0.00 0.00 0.00 95 1016.7
20260510111517 7 0.0 0.0 0.00 0.00 0.00 96 1016.6
20260510110517 7 0.0 0.0 0.00 0.00 0.00 96 1016.4
20260510105516 7 0.0 0.0 0.00 0.00 0.00 96 1016.2
20260510104517 7 0.0 0.0 0.00 0.00 0.00 95 1016.1
20260510103516 7 0.0 0.0 0.00 0.00 0.00 95 1015.8
20260510102537 7 0.0 0.0 0.00 0.00 0.00 95 1015.7
20260510101517 7 0.0 0.0 0.00 0.00 0.00 95 1015.6
20260510100518 7 0.0 0.0 0.00 0.00 0.00 95 1015.4
20260510095517 7 0.0 0.0 0.00 0.00 0.00 95 1015.3
20260510094537 7 0.0 0.0 0.00 0.00 0.00 95 1015.4
20260510093537 7 0.0 0.0 0.00 0.00 0.00 95 1015.3
20260510092517 7 0.0 0.0 0.00 0.00 0.00 95 1015.3
20260510091517 7 0.0 0.0 0.00 0.00 0.00 95 1015.2
20260510090517 7 0.0 0.0 0.00 0.00 0.00 95 1015.0
20260510085517 7 0.0 0.0 0.00 0.00 0.00 95 1014.9
20260510084537 7 0.0 0.0 0.00 0.00 0.00 95 1014.8
20260510083517 7 0.0 0.0 0.00 0.00 0.00 94 1014.8
20260510082516 7 0.0 0.0 0.00 0.00 0.00 94 1014.7
20260510081516 7 0.0 0.0 0.00 0.00 0.00 94 1014.5
20260510080518 7 0.0 0.0 0.00 0.00 0.00 94 1014.5
20260510075517 7 0.0 0.0 0.00 0.00 0.00 94 1014.4
20260510074517 8 0.0 0.0 0.00 0.00 0.00 94 1014.3
20260510073517 8 0.0 0.0 0.00 0.00 0.00 94 1014.2
20260510072517 8 0.0 0.0 0.00 0.00 0.00 94 1014.1
20260510071517 7 0.0 0.0 0.00 0.00 0.00 94 1014.2
20260510070517 7 0.0 0.0 0.00 0.00 0.00 93 1014.1
20260510065517 7 0.0 0.0 0.00 0.00 0.00 93 1014.0
20260510064537 8 0.0 0.0 0.00 0.00 0.00 92 1014.1
20260510063517 8 0.0 0.0 0.00 0.00 0.00 92 1014.0
20260510062517 8 0.0 0.0 0.00 0.00 0.00 92 1014.1
20260510061518 8 0.0 0.0 0.00 0.00 0.00 92 1014.2
20260510060517 8 0.0 0.0 0.00 0.00 0.00 92 1014.2
20260510055517 8 0.0 1.6 0.00 0.00 0.00 92 1014.0
20260510054517 8 206 0.0 3.2 0.00 0.00 0.00 91 1014.0
20260510053517 9 0.0 3.2 0.00 0.00 0.00 91 1014.0
20260510052516 9 0.0 0.0 0.00 0.00 0.00 91 1014.1
20260510051516 9 0.0 0.0 0.00 0.00 0.00 91 1014.2
20260510050516 9 0.0 0.0 0.00 0.00 0.00 91 1014.2
20260510045517 9 0.0 0.0 0.00 0.00 0.00 90 1014.2
20260510044517 9 0.0 0.0 0.00 0.00 0.00 90 1014.2
20260510043537 10 277 0.0 1.6 0.00 0.00 0.00 89 1014.0
20260510042537 10 0.0 1.6 0.00 0.00 0.00 89 1014.2
20260510041517 10 0.0 1.6 0.00 0.00 0.00 88 1014.1
20260510040516 10 350 1.6 3.2 0.00 0.00 0.00 88 1014.1
20260510035517 10 0.0 0.0 0.00 0.00 0.00 88 1014.0
20260510034517 10 0.0 0.0 0.00 0.00 0.00 87 1014.0
20260510033516 11 0.0 0.0 0.00 0.00 0.00 86 1013.9
20260510032516 11 0.0 0.0 0.00 0.00 0.00 85 1013.9
20260510031516 11 0.0 0.0 0.00 0.00 0.00 85 1013.9
20260510030517 11 0.0 0.0 0.00 0.00 0.00 83 1013.7
20260510025517 11 0.0 0.0 0.00 0.00 0.00 83 1013.8
20260510024517 12 0.0 0.0 0.00 0.00 0.00 81 1013.9
20260510023517 12 0.0 0.0 0.00 0.00 0.00 81 1013.8
20260510022517 12 0.0 0.0 0.00 0.00 0.00 79 1013.6
20260510021517 12 0.0 0.0 0.00 0.00 0.00 78 1013.5
20260510020537 13 0.0 0.0 0.00 0.00 0.00 77 1013.2
20260510015517 13 0.0 0.0 0.00 0.00 0.00 75 1013.0
20260510014517 13 0.0 0.0 0.00 0.00 0.00 74 1012.8
20260510013517 14 0.0 0.0 0.00 0.00 0.00 73 1012.6
20260510012517 14 0.0 0.0 0.00 0.00 0.00 72 1012.3
20260510011517 15 0.0 0.0 0.00 0.00 0.00 71 1012.0
20260510010517 15 0.0 0.0 0.00 0.00 0.00 69 1012.0
20260510005517 15 0.0 0.0 0.00 0.00 0.00 67 1011.8
20260510004516 16 0.0 0.0 0.00 0.00 0.00 66 1011.8
20260510003517 16 0.0 0.0 0.00 0.00 0.00 64 1011.7
20260510002517 17 0.0 0.0 0.00 0.00 0.00 63 1011.6
20260510001517 17 0.0 0.0 0.00 0.00 0.00 60 1011.6
20260510000517 18 323 1.6 3.2 0.00 0.00 0.00 57 1011.4
20260509235517 19 323 0.0 3.2 0.00 0.00 0.00 54 1011.2
20260509234516 20 313 1.6 4.8 0.00 0.00 0.00 52 1011.0
20260509233517 20 313 4.8 8.0 0.00 0.00 0.00 50 1010.8
20260509232517 20 330 3.2 4.8 0.00 0.00 0.00 51 1010.7
20260509231517 20 329 3.2 4.8 0.00 0.00 0.00 49 1010.7
20260509230517 20 244 6.4 11.3 0.00 0.00 0.00 49 1010.7
20260509225517 21 342 3.2 4.8 0.00 0.00 0.00 49 1010.6
20260509224517 21 296 3.2 3.2 0.00 0.00 0.00 49 1010.7
20260509223516 21 218 3.2 4.8 0.00 0.00 0.00 49 1010.7
20260509222536 21 283 1.6 3.2 0.00 0.00 0.00 48 1010.8
20260509221516 21 251 3.2 8.0 0.00 0.00 0.00 47 1010.8
20260509220517 21 326 1.6 3.2 0.00 0.00 0.00 46 1010.7
20260509215517 21 303 3.2 12.9 0.00 0.00 0.00 46 1010.7
20260509214517 22 263 3.2 14.5 0.00 0.00 0.00 46 1010.7
20260509213537 21 256 6.4 11.3 0.00 0.00 0.00 47 1010.7
20260509212516 21 247 9.7 16.1 0.00 0.00 0.00 46 1010.6
20260509211517 21 275 4.8 12.9 0.00 0.00 0.00 47 1010.5
20260509210517 22 282 4.8 9.7 0.00 0.00 0.00 46 1010.4
20260509205517 22 249 8.0 16.1 0.00 0.00 0.00 46 1010.3
20260509204517 22 275 4.8 11.3 0.00 0.00 0.00 44 1010.3
20260509203516 22 299 6.4 9.7 0.00 0.00 0.00 43 1010.1
20260509202537 22 280 3.2 8.0 0.00 0.00 0.00 47 1010.1
20260509201517 22 281 6.4 9.7 0.00 0.00 0.00 46 1010.1
20260509200517 23 224 14.5 24.1 0.00 0.00 0.00 42 1009.9
20260509195537 22 252 11.3 19.3 0.00 0.00 0.00 43 1009.9
20260509194517 22 269 3.2 6.4 0.00 0.00 0.00 45 1009.8
20260509193517 22 243 3.2 14.5 0.00 0.00 0.00 42 1009.9
20260509192517 22 284 4.8 14.5 0.00 0.00 0.00 42 1010.0
20260509191517 22 231 6.4 11.3 0.00 0.00 0.00 43 1010.0